TimePST,TemperatureF,Dew PointF,Humidity,Sea Level PressureIn,VisibilityMPH,Wind Direction,Wind SpeedMPH,Gust SpeedMPH,PrecipitationIn,Events,Conditions,WindDirDegrees,DateUTC
12:53 AM,46.9,43.0,86,30.12,10.0,SE,4.6,-,N/A,,Clear,130,2012-12-11 08:53:00
1:53 AM,46.0,42.1,86,30.12,10.0,East,6.9,-,N/A,,Clear,90,2012-12-11 09:53:00
2:53 AM,46.9,42.1,83,30.12,10.0,East,6.9,-,N/A,,Clear,100,2012-12-11 10:53:00
3:53 AM,46.0,41.0,83,30.09,10.0,ESE,15.0,-,N/A,,Clear,110,2012-12-11 11:53:00
4:53 AM,46.0,39.9,79,30.07,10.0,East,11.5,-,N/A,,Clear,100,2012-12-11 12:53:00
5:53 AM,45.0,39.9,82,30.07,10.0,ESE,10.4,-,N/A,,Clear,110,2012-12-11 13:53:00
6:53 AM,44.1,39.9,85,30.08,10.0,East,15.0,-,N/A,,Clear,100,2012-12-11 14:53:00
7:53 AM,46.0,39.9,79,30.07,10.0,East,13.8,-,N/A,,Clear,100,2012-12-11 15:53:00
8:53 AM,48.0,41.0,77,30.07,10.0,East,15.0,-,N/A,,Clear,100,2012-12-11 16:53:00
9:53 AM,52.0,43.0,71,30.07,10.0,East,13.8,-,N/A,,Clear,100,2012-12-11 17:53:00
10:53 AM,55.9,45.0,67,30.04,10.0,ESE,13.8,-,N/A,,Clear,110,2012-12-11 18:53:00
11:53 AM,60.1,46.9,62,30.01,10.0,ESE,11.5,-,N/A,,Clear,120,2012-12-11 19:53:00
12:53 PM,64.0,46.9,54,29.99,10.0,South,4.6,-,N/A,,Clear,190,2012-12-11 20:53:00
1:53 PM,62.1,46.0,56,29.97,10.0,West,8.1,-,N/A,,Clear,270,2012-12-11 21:53:00
2:53 PM,59.0,48.9,69,29.97,10.0,West,12.7,-,N/A,,Clear,270,2012-12-11 22:53:00
3:31 PM,57.2,48.2,72,29.94,10.0,West,11.5,-,N/A,,Mostly Cloudy,280,2012-12-11 23:31:00
3:38 PM,55.4,48.2,77,29.94,10.0,WNW,11.5,-,N/A,,Mostly Cloudy,290,2012-12-11 23:38:00
3:53 PM,55.9,48.9,77,29.97,10.0,WNW,9.2,-,N/A,,Overcast,290,2012-12-11 23:53:00
4:44 PM,55.4,48.2,77,29.93,10.0,West,6.9,-,N/A,,Overcast,280,2012-12-12 00:44:00
4:53 PM,55.0,48.9,80,29.96,10.0,WNW,4.6,-,N/A,,Overcast,290,2012-12-12 00:53:00
5:53 PM,55.0,48.0,77,29.96,10.0,West,6.9,-,N/A,,Overcast,280,2012-12-12 01:53:00
6:53 PM,54.0,48.0,80,29.95,10.0,West,6.9,-,N/A,,Overcast,270,2012-12-12 02:53:00
7:53 PM,54.0,48.0,80,29.93,10.0,Calm,Calm,-,N/A,,Overcast,0,2012-12-12 03:53:00
8:14 PM,53.6,48.2,82,29.91,10.0,WNW,3.5,-,N/A,,Scattered Clouds,300,2012-12-12 04:14:00
8:42 PM,53.6,48.2,82,29.92,10.0,WNW,6.9,-,N/A,,Mostly Cloudy,290,2012-12-12 04:42:00
8:53 PM,54.0,48.0,80,29.95,10.0,West,10.4,16.1,N/A,,Overcast,270,2012-12-12 04:53:00
9:53 PM,54.0,48.0,80,29.96,10.0,West,4.6,-,N/A,,Overcast,270,2012-12-12 05:53:00
10:32 PM,53.6,46.4,77,29.93,10.0,Calm,Calm,-,N/A,,Overcast,0,2012-12-12 06:32:00
10:53 PM,54.0,46.9,77,29.96,10.0,West,4.6,-,N/A,,Overcast,260,2012-12-12 06:53:00
11:53 PM,54.0,46.0,75,29.95,10.0,West,3.5,-,N/A,,Overcast,260,2012-12-12 07:53:00